星链-33995 (STARLINK-33995)

导读

STARLINK-33995是美国SpaceX星链星座中的一颗卫星,于2025年4月28日发射升空,隶属于Starlink卫星互联网项目。作为星链网络的组成部分,它将和其他星链卫星协同,为全球提供低延迟、高速率的宽带互联网服务,进一步扩充星链星座的覆盖规模与服务能力,推动全球卫星互联网布局完善。

基本信息
目录编号:
63706
目录名称:
STARLINK-33995
国际标识:
2025-087K
轨道中心:
EARTH
卫星名称:
星链-33995
卫星全名:
星链-33995 (STARLINK-33995)
卫星状态:
在轨 (已飞行494 天)
发射日期:
2025-04-28 UTC
国别 :
美国 (US)
星等 :
--
轨道信息
数据来源 国际轨道数据 AOE轨道数据
星历时间 2026-09-03T07:04:52+0800
1天前
查看轨道信息
2026-08-31T18:00:00+0800
3天前
查看轨道信息
半长轴 6840.799km 6840.817km
偏心率 0.0000928 0.0001168
轨道倾角 53.160° 53.157°
近地点辐角 82.677° 69.740°
升交点赤经 115.939° 127.838°
平近点角 277.434° 264.202°
近地点 462.027km 461.88km
远地点 463.297km 463.48km
周期 93.847分钟 93.847分钟
每日圈数 15.344141 15.344081
详细信息
固有亮度:
5
最大亮度:
2.5
卫星平台:
Starlink V1.0
覆盖范围:
全球
运营商:
太空探索技术公司
运营商所在国:
美国
制造商(研发单位):
太空探索技术公司
制造商所在国:
美国
使用方式:
暂无
卫星简介
Starlink 计划是 SpaceX 推出的全球卫星互联网项目,通过发射低轨道卫星,为全球尤其是偏远地区提供高速、低延迟的互联网服务。自 2019 年起,Starlink 已部署数千颗卫星,旨在缩小全球数字鸿沟,推动互联网普及。该项目还为军事、航空等行业提供通信支持,带来广泛经济效益。
2D轨道图
3D轨道图
轨道高度分析图
轨道倾角分析图
轨道综合分析图
查看轨道综合分析图
交会数据列表
事件ID 空间交会对象 最接近时刻(TCA) 交会距离 交会风险概率(CRP) 交会风险指数(CRI) 操作
CDM_260905-074205-238006-370621
2026-09-05T
07:42:43+0000
0.547 km
远距离
5.769173E-5 中风险 0.7
CDM_260904-223306-370606-460421
2026-09-04T
22:33:16+0000
1.407 km
极远距离
6.492416E-6 低风险 0.51
CDM_260905-052205-238006-370621
2026-09-05T
05:22:02+0000
1.110 km
极远距离
5.760516E-6 低风险 0.5
CDM_260904-160606-042706-370622
2026-09-04T
16:06:25+0000
1.001 km
极远距离
3.682444E-6 低风险 0.46
CDM_260904-151906-042706-370622
2026-09-04T
15:19:32+0000
1.187 km
极远距离
2.102645E-6 低风险 0.41
CDM_260905-053506-370606-460421
2026-09-05T
05:35:20+0000
2.447 km
极远距离
1.475132E-6 低风险 0.38
CDM_260905-010305-187406-370621
2026-09-05T
01:03:52+0000
2.873 km
极远距离
1.263753E-6 低风险 0.37
CDM_260904-174705-260106-370621
2026-09-04T
17:47:42+0000
2.595 km
极远距离
1.150614E-6 低风险 0.36
CDM_260904-071806-323706-370621
2026-09-04T
07:18:22+0000
2.951 km
极远距离
8.894161E-7 极低风险 0.34
CDM_260904-134506-042706-370622
2026-09-04T
13:45:44+0000
2.070 km
极远距离
4.859518E-7 极低风险 0.29